Regional Weather Roundup
Issued by NWS

Home | Current Version | Previous Version | Graphics & Text | Print | Product List | Glossary On
Versions: 1 2 3 4 5 6 7 8 9 10 11 12 13 14 15 16 17 18 19 20 21 22 23 24 25 26 27 28 29 30 31 32 33 34 35 36 37 38 39 40 41 42 43 44 45 46 47 48 49 50
002
ASUS43 KOAX 281210
RWRNE

WEATHER ROUNDUP FOR NEBRASKA
NATIONAL WEATHER SERVICE OMAHA NE
700 AM CDT FRI JUL 28 2017

NOTES: SATELLITE DATA IS BEING USED TO AUGMENT CLOUD COVER ABOVE
       12000 FEET.
       "FAIR" INDICATES FEW OR NO CLOUDS BELOW 12,000 FEET WITH NO
       SIGNIFICANT WEATHER AND/OR OBSTRUCTIONS TO VISIBILITY.


NEZ001>004-019>022-054>056-281300-
NEBRASKA PANHANDLE

CITY           SKY/WX    TMP DP  RH WIND       PRES   REMARKS
SCOTTSBLUFF    CLOUDY    66  61  84 NE5       30.11R
6HR MIN TEMP:  63; 6HR MAX TEMP:  66;

ALLIANCE       CLOUDY    63  60  90 MISG      30.11R
6HR MIN TEMP:  62; 6HR MAX TEMP:  63; 6HR PCP:  0.86;

CHADRON        CLOUDY    63  58  83 S10       30.03F
6HR MIN TEMP:  62; 6HR MAX TEMP:  67; 6HR PCP: TRACE;

GORDON         PTSUNNY   61  60  94 SW6       30.08S
6HR MIN TEMP:  61; 6HR MAX TEMP:  65; 6HR PCP:  0.01;

KIMBALL        CLOUDY    63  62  97 SE3       30.16R
SIDNEY         CLOUDY    64  60  87 SE10      30.12R
6HR MIN TEMP:  63; 6HR MAX TEMP:  65;

$$

NEZ057>060-069>072-079>082-281300-
SOUTHWEST NEBRASKA

CITY           SKY/WX    TMP DP  RH WIND       PRES   REMARKS
NORTH PLATTE   MOCLDY    66  62  87 SE5       30.06R
6HR MIN TEMP:  66; 6HR MAX TEMP:  71;

IMPERIAL       CLEAR     65  61  87 S14       30.07S
6HR MIN TEMP:  64; 6HR MAX TEMP:  70; 6HR PCP:  0.41;

LEXINGTON      CLOUDY    66  64  92 SE7       30.08F FOG
MCCOOK         CLOUDY    67  63  87 E3        30.08F
6HR MIN TEMP:  66; 6HR MAX TEMP:  68;

OGALLALA       CLEAR     64  63  96 CALM      30.07R
$$

NEZ005>010-023>029-035>040-094-281300-
NORTH CENTRAL NEBRASKA

CITY           SKY/WX    TMP DP  RH WIND       PRES   REMARKS
VALENTINE      CLOUDY    67  60  78 E6        30.09R
6HR MIN TEMP:  67; 6HR MAX TEMP:  73; 6HR PCP: TRACE;

AINSWORTH      LGT RAIN  66  64  91 E3        30.09R
BROKEN BOW     CLOUDY    65  62  90 SE6       30.06F
6HR MIN TEMP:  63; 6HR MAX TEMP:  67;

O`NEILL        CLOUDY    66  65  94 E6        30.09R
ORD            CLOUDY    64  61  90 CALM      30.07R
6HR MIN TEMP:  63; 6HR MAX TEMP:  67;

THEDFORD       MOCLDY    67  63  88 E5        30.09R
$$

NEZ041-046>049-061>064-073>077-083>087-281300-
SOUTH CENTRAL NEBRASKA

CITY           SKY/WX    TMP DP  RH WIND       PRES   REMARKS
GRAND ISLAND   PTCLDY    63  63 100 NE3       30.07S FOG
6HR MIN TEMP:  61; 6HR MAX TEMP:  66;

AURORA         MOCLDY    63  63 100 CALM      30.08R
HASTINGS       CLEAR     61  59  93 CALM      30.09R FOG
6HR MIN TEMP:  61; 6HR MAX TEMP:  67;

HEBRON         CLEAR     64  62  95 CALM      30.05R
HOLDREGE       CLEAR     61  59  94 CALM      30.08F FOG
KEARNEY        CLEAR     63  61  93 CALM      30.08S FOG
YORK           PTCLDY    63  61  94 CALM      30.07R
$$

NEZ011>018-030>034-042>045-281300-
NORTHEAST NEBRASKA

CITY           SKY/WX    TMP DP  RH WIND       PRES   REMARKS
NORFOLK        CLOUDY    67  62  84 S3        30.06S
6HR MIN TEMP:  66; 6HR MAX TEMP:  68;

ALBION         CLOUDY    67  64  91 CALM      30.08R
BLAIR          PTCLDY    66  64  95 CALM      30.05R
COLUMBUS       PTCLDY    65  63  93 CALM      30.07R
FREMONT        CLOUDY    65  64  96 CALM      30.06R
TEKAMAH        CLEAR     65  62  90 N6        30.05R
6HR MIN TEMP:  63; 6HR MAX TEMP:  67;

WAYNE          MOCLDY    62  62  99 CALM      30.08R
$$

NEZ050>053-065>068-078-088>093-281300-
SOUTHEAST NEBRASKA

CITY           SKY/WX    TMP DP  RH WIND       PRES   REMARKS
LINCOLN        PTCLDY    64  62  93 N3        30.05R
6HR MIN TEMP:  63; 6HR MAX TEMP:  67;

OMAHA EPPLEY   PTCLDY    66  63  90 N6        30.04S
6HR MIN TEMP:  64; 6HR MAX TEMP:  67;

BEATRICE       PTCLDY    64  62  94 NE5       30.04R
FALLS CITY     CLEAR     67  63  87 CALM      30.01R
6HR MIN TEMP:  66; 6HR MAX TEMP:  71;

NEBRASKA CITY  CLEAR     64  64 100 N5        30.04R
PLATTSMOUTH    CLEAR     64  62  95 N3        30.04R
$$

NEZ044-045-051>053-067-281300-
OMAHA AREA

CITY           SKY/WX    TMP DP  RH WIND       PRES   REMARKS
OMAHA EPPLEY   PTCLDY    66  63  90 N6        30.04S
6HR MIN TEMP:  64; 6HR MAX TEMP:  67;

BLAIR          PTCLDY    66  64  95 CALM      30.05R
FREMONT        CLOUDY    65  64  96 CALM      30.06R
MILLARD        CLEAR     69  65  88 CALM      30.04R
OFFUTT AFB     PTCLDY    64  63  94 CALM      30.04R
PLATTSMOUTH    CLEAR     64  62  95 N3        30.04R
WAHOO          FAIR      64  63  97 NW3       30.06R
$$




USA.gov is the U.S. government's official web portal to all federal, state and local government web resources and services.